www.pogodaiklimat.ru

Погода и климат >> Архив погоды >> Россия >> Ненецкий АО >> Бугрино


ПОГОДА в Бугрино

  • Прогноз погоды в Бугрино
  • Монитор погоды в Бугрино

АРХИВ ПОГОДЫ в Бугрино

Время (UTC), дата Ветер
(напр.,м/с)
 
Видим.   Явления Облачность Т
(С)
Тd
(С)
f
(%)
Тe
(С)
Тes
(С)
Комфортность P
(гПа)
Po
(гПа)
Тmin
(С)
Tmax
(С)
R
(мм)
R24
(мм)
S
(см)
21 19.03 ЮЗ 9-11
{12}
4000 м слаб. ливневой снег {метель} 10/10 300 м
[Cb cap]
-0.8 -0.8 100 -9 -9 1003.2 1002.2
00 20.03 ЮЗ 8-10
{11}
4000 м слаб. ливневой снег {метель} 10/10 300 м
[Cb cap]
-1.1 -1.1 100 -9 -9 1002.5 1001.6
03 20.03 ЮЗ 5
{11}
2000 м дымка {ливн. осадки} 10/10 210 м
[St]
-1.3 -1.3 100 -8 -8 1001.9 1000.9 -1.8 0.8 29
06 20.03 ЮЗ 5 2000 м дымка {ливн. осадки} 10/10 210 м
[St]
-0.8 -0.8 100 -7 -7 1000.7 999.7
09 20.03 ЮЗ 6 10 км 10/10 210 м
[St]
-1.2 -1.2 100 -8 -8 1000.4 999.4
12 20.03 ЮЗ 5 10 км 10/10 200 м
[St]
-1.3 -1.3 100 -8 -8 1000.3 999.3
15 20.03 З 4 4000 м слаб. ливневой снег 10/10 200 м
[Cb cap]
-1.5 -1.5 100 -8 -8 1000.6 999.6 -0.8 0.0
18 20.03 З 6 10 км {ливн. осадки} 10/10 210 м
[St]
-2.4 -2.4 100 -10 -10 1001.0 1000.0
21 20.03 З 4 4000 м слаб. снег 10/10 200 м
[Frnb Ns]
-2.5 -2.5 100 -9 -9 1001.0 1000.0
00 21.03 З 5 10 км в посл. час снег 9/9 300 м
[Sc]
-2.9 -2.9 100 -10 -10 1001.4 1000.4
03 21.03 З 6 4000 м слаб. ливневой снег 10/10 300 м
[Cb cap]
-2.2 -2.2 100 -10 -10 1001.0 1000.0 -3.3 0.4 30
06 21.03 СЗ 4 10 км {ливн. осадки} 10/10 270 м
[St]
-2.5 -2.5 100 -9 -9 1002.1 1001.1
09 21.03 СЗ 5 4000 м слаб. ливневой снег 10/10 300 м
[Cb cap]
-2.2 -2.2 100 -9 -9 1003.4 1002.4
12 21.03 СВ 2 4000 м слаб. ливневой снег 10/10 300 м
[Cb cap]
-3.0 -3.0 100 -7 -7 1004.5 1003.5
15 21.03 СВ 1 10 км {ливн. осадки} 10/10 360 м
[St]
-4.3 -4.4 99 -7 -7 1005.3 1004.3 -1.8 0.8
18 21.03 В 3 4000 м слаб. ливневой снег 10/10 300 м
[Cb cap]
-5.1 -5.2 99 -11 -11 1005.1 1004.1
21 21.03 ЮВ 1 10 км {ливн. осадки} 10/10 300 м
[Cb calv]
-5.1 -5.1 100 -8 -8 1004.8 1003.8
00 22.03 штиль 0 2000 м дымка {ливн. осадки} 9/6 200 м
[St Ac trans]
-8.5 -8.8 98 -9 -9 1004.7 1003.7
03 22.03 Ю 2 200 м переохл. туман ?/? -6.6 -6.7 99 -11 -11 1005.3 1004.3 -11.1 0.0 30
06 22.03 В 2 500 м переохл. туман ?/? -6.2 -6.3 99 -11 -11 1006.1 1005.1
09 22.03 В 2 500 м туман 9/9 300 м
[St]
-6.9 -7.1 98 -11 -11 1007.4 1006.4
12 22.03 СВ 1 10 км {туман} 9/3 300 м
[Sc Ac trans Ci fib]
-6.1 -6.2 99 -9 -8 1008.5 1007.5
15 22.03 С 1 500 м туман ?/? -6.9 -7.1 98 -9 -9 1010.1 1009.1 -5.5
18 22.03 З 2 500 м туман 9/9 200 м
[St]
-10.9 -11.5 95 -15 -15 1010.8 1009.8
21 22.03 ЮЗ 3 4000 м слаб. ливневой снег {туман} 10/10 300 м
[Cb cap]
-6.3 -6.4 99 -12 -12 1011.3 1010.2
00 23.03 З 6 500 м туман {ливн. осадки} ?/? -3.2 -3.2 100 -11 -11 1011.2 1010.2
03 23.03 ЮЗ 5 4000 м дымка {туман} 6/0
[Ac trans Ci fib]
-7.5 -7.7 98 -15 -15 1010.8 1009.8 -11.7 0.2 30
06 23.03 ЮЗ 8 10 км {туман} 9/0
[Ac trans Ci sp]
-3.6 -3.6 100 -12 -12 1009.9 1008.9
09 23.03 ЮЗ 12-15
{16}
4000 м метель 9/0
[Ac As]
-2.6 -2.9 98 -12 -12 1007.8 1006.8
12 23.03 Ю 11-14
{16}
4000 м метель {снег} 10/0
[Ac und]
-2.1 -2.6 96 -11 -11 1005.1 1004.1
15 23.03 Ю 14-17
{17}
4000 м метель {снег} 10/10 210 м
[St]
-1.4 -2.2 94 -11 -11 1000.8 999.8 -1.4 0.2
18 23.03 Ю 15-22
{22}
500 м сильная метель ?/? -1.3 -1.3 100 -12 -12 995.2 994.3
21 23.03 Ю 14-20
{23}
500 м сильная метель ?/? -1.3 -1.3 100 -11 -11 991.0 990.0
00 24.03 Ю 12-16
{21}
500 м сильная метель ?/? -1.0 -1.0 100 -10 -10 988.4 987.4
03 24.03 ЮЗ 14-18
{19}
2000 м слаб. ливневой снег {метель} 10/10 300 м
[Cb cap]
-0.9 -0.9 100 -11 -11 987.4 986.4 -1.4 2 28
06 24.03 ЮЗ 13-16
{18}
4000 м позёмок {ливн. осадки} 10/10 210 м
[St]
-0.8 -0.8 100 -10 -10 987.7 986.7
09 24.03 ЮЗ 11-16
{16}
4000 м слаб. ливневой снег {метель} 9/9 300 м
[Cb cap]
-0.5 -0.5 100 -9 -9 989.7 988.7
12 24.03 ЮЗ 10-14
{16}
10 км позёмок {ливн. осадки} 10/10 300 м
[St]
-0.8 -1.1 98 -10 -10 991.7 990.8
15 24.03 ЮЗ 10-13
{16}
10 км позёмок 9/5 600 м
[Sc Ac trans]
-1.3 -1.8 96 -10 -10 992.8 991.8 -0.4 0.0
18 24.03 ЮЗ 8-10
{15}
10 км позёмок {ливн. осадки} 9/9 300 м
[Cb cap]
-0.6 -1.3 95 -8 -8 993.6 992.6
21 24.03 Ю 6
{10}
10 км {метель} 9/9 300 м
[Sc]
-0.5 -1.2 95 -7 -7 993.6 992.6
00 25.03 Ю 8
{10}
10 км позёмок 8/5 300 м
[Sc Ac trans]
-1.3 -1.7 97 -9 -9 993.8 992.8
03 25.03 Ю 7 10 км {метель} 9/0
[Ac As]
-1.5 -1.6 99 -9 -9 994.0 993.0 -1.6 0.0 29
06 25.03 Ю 7-10
{12}
10 км {метель} 10/10 300 м
[St]
-0.6 -0.6 100 -8 -8 994.1 993.1
09 25.03 ЮЗ 9-13
{13}
10 км {ливн. осадки} 10/10 300 м
[St]
-0.5 -0.5 100 -9 -9 995.3 994.3
12 25.03 ЮЗ 8
{13}
10 км {ливн. осадки} 10/10 360 м
[St]
-0.4 -0.7 98 -8 -8 996.6 995.6
15 25.03 ЮЗ 5 10 км 10/10 270 м
[St]
-1.1 -1.1 100 -8 -8 997.4 996.4 -0.3 0.0
18 25.03 Ю 3 10 км 9/5 600 м
[Sc Ac trans]
-2.1 -2.1 100 -7 -7 997.9 997.0
21 25.03 ЮВ 1 10 км 9/0
[Ac trans]
-2.7 -2.7 100 -5 -5 997.9 996.9
00 26.03 Ю 1 10 км 9/0
[Ac trans]
-2.8 -2.8 100 -5 -5 997.4 996.4
03 26.03 СВ 2 500 м переохл. туман ?/? -3.5 -3.5 100 -8 -8 997.3 996.3 -3.5 29
06 26.03 С 3 4000 м в посл. час туман 10/10 300 м
[St]
-3.5 -3.5 100 -9 -9 996.5 995.5 -4.2
09 26.03 С 6 4000 м дымка 10/10 210 м
[St]
-1.9 -1.9 100 -9 -9 996.3 995.3
12 26.03 С 6 10 км 10/10 270 м
[St]
-1.6 -1.7 99 -9 -9 996.6 995.7
15 26.03 С 8-12
{13}
10 км позёмок 10/10 420 м
[Sc]
-2.3 -3.5 91 -11 -11 997.5 996.5 -1.4
18 26.03 С 8
{15}
10 км {ливн. осадки, метель} 8/8 300 м
[Sc]
-3.0 -4.4 90 -11 -11 998.4 997.4

 

Местоположение метеостанции Бугрино (Ненецкий АО, Россия): широта 68.80 долгота 49.33 высота над уровнем моря 7 м.

В архиве по умолчанию представлена погода в Бугрино за последнюю неделю. Архивные данные за месяц целиком и за предыдущие месяцы, начиная с января 2011 года, Вы можете получить, выбрав интересующий диапазон дат из раскрывающегося списка и нажав кнопку "Ввод!".


*Определитесь, кто Вы:
робот инопланетянин человек

Внимание! Время в таблицах - всемирное. Для получения местного времени необходимо прибавить поправку, которая равна 3 ч.

Смотрите также архив погоды в соседних городах и на ближайших метеорологических станциях:

Погода на Колгуевом Острове (Ненецкий АО, Россия) (82 км)
Погода в Сенгейском Шаре (Ненецкий АО, Россия) (86 км)
Погода в Индиге (Ненецкий АО, Россия) (127 км)
Погода на Мысе Микулкин (Ненецкий АО, Россия) (156 км)
Погода в Ходоварихе (Ненецкий АО, Россия) (178 км)
Погода в Нарьян-Маре (Ненецкий АО, Россия) (200 км)
Погода в Коткино (Ненецкий АО, Россия) (211 км)
Погода в Шойне (Ненецкий АО, Россия) (235 км)
Погода в Нижней Пеше (Ненецкий АО, Россия) (237 км)
Погода в Канином Носе (Ненецкий АО, Россия) (244 км)

Пояснения к столбцам:

Ветер - указаны скорость ветра в м/с - средняя за 10 мин, порывы в срок и между сроками (в фигурных скобках) и направление, откуда дует ветер: С - северный, СВ - северо-восточный, В - восточный, ЮВ - юго-восточный, Ю - южный, ЮЗ - юго-западный, З - западный, СЗ - северо-западный.
Видимость - горизонтальная дальность видимости в метрах или километрах. При видимости от 1 до 10 км при отсутствии осадков обычно наблюдается дымка, при ухудшении видимости до 1 км и менее - туман. В сухую погоду видимость может ухудшаться дымом, пылью или мглою.
Явления - указаны атмосферные явления, наблюдавшиеся в срок или в последний час перед сроком; фигурными скобками обозначены явления, наблюдавшиеся между сроками (за 1-3 часа до срока); квадратными скобками обозначены град или гололедные отложения с указанием их диаметра в мм.
Облачность - указаны через наклонную черту общая и нижняя облачность в баллах и высота нижней границы облаков в метрах; квадратными скобками обозначены формы облаков: Ci - перистые, Cs - перисто-слоистые, Cc - перисто-кучевые, Ac - высококучевые, As - высокослоистые, Sc - слоисто-кучевые, Ns - слоисто-дождевые, Cu - кучевые, Cb - кучево-дождевые. Подробнее классификацию облаков см. в Атласе облаков (PDF).
T - Температура воздуха - температура, измеренная на высоте 2 м над землей.
Td - Температура точки росы - температура, при понижении до которой содержащийся в воздухе водяной пар достигнет насыщения.
f - Относительная влажность воздуха - влажноcть воздуха, измеренная на высоте 2 м над землей.
Te - Эффективная температура - температура, которую ощущает одетый по сезону человек в тени. Характеристика душности погоды. При расчете учитывается влияние влажности воздуха и скорости ветра на теплоощущения человека.
Tes - Эффективная температура на солнце - температура, которую ощущает человек, с поправкой на солнечный нагрев. Характеристика знойности погоды. Зависит от высоты солнца над горизонтом, облачности и скорости ветра. Ночью, в пасмурную погоду, а также при ветре 12 м/с и более поправка равна нулю.
P - Атмосферное давление - приведенное к уровню моря атмосферное давление.
Po - Атмосферное давление - измеренное на уровне метеостанции атмосферное давление.
Tmin - Минимальная температура - минимум температуры воздуха на высоте 2 м над землей.
Tmax - Максимальная температура - максимум температуры воздуха на высоте 2 м над землей.
R - Количество осадков - Количество выпавших осадков за период времени, мм. При наведении курсора мыши на число - период времени, за который выпало указанное количество осадков.
R24 - Количество осадков - Количество выпавших осадков за 24 часа, мм.
S - Снежный покров - Высота снежного покрова, см. При наведении курсора мыши на число - состояние снежного покрова и степень покрытия местности в баллах.